SCP
0 0 0 0 0 0 0 0 0 0 0 0 0 0 0 0 0 0 0 0 0 0 0 0 0 0 0 0 0 0 0 0 0 0 0 0 0 0 0 0 0 0 0
0 0 0 0 0 0 0 0 0 0 0 0 0 0 0 0 0 0 0 0 0 0 0 0 0 0 0 0 0 0 0 0 0 0 0 0 0 0 0 0 0 0 0
0 0 0 0 0 0 0 0 0 0 0 0 0 0 0 0 0 0 0 0 0 0 0 0 0 0 0 0 0 0 0 0 0 0 0 0 0 0 0 0 0 0 0
0 0 0 0 0 0 0 0 0 0 0 0 0 0 0 0 0 0 0 0 0 0 0 0 0 0 0 0 0 0 0 0 0 0 0 0 0 0 0 0 0 0 0
0 0 0 0 0 0 0 0 0 0 0 0 0 0 0 0 0 0 0 0 0 0 0 0 0 0 0 0 0 0 0 0 0 0 0 0 0 0 0 0 0 0 0
0 0 0 0 0 0 0 0 0 0 0 0 0 0 0 0 0 0 0 0 0 0 0 0 0 0 0 0 0 0 0 0 0 0 0 0 0 0 0 0 0 0 0
0 0 0 0 0 0 0 0 0 0 0 0 0 0 0 0 0 0 0 0 0 0 0 0 0 0 0 0 0 0 0 0 0 0 0 0 0 0 0 0 0 0 0
0 0 0 0 0 0 0 0 0 0 0 0 0 0 0 0 0 0 0 0 0 0 0 0 0 0 0 0 0 0 0 0 0 0 0 0 0 0 0 0 0 0 0
0 0 0 0 0 0 0 0 0 0 0 0 0 0 0 0 0 0 0 0 0 0 0 0 0 0 0 0 0 0 0 0 0 0 0 0 0 0 0 0 0 0 0
0 0 0 0 0 0 0 0 0 0 0 0 0 0 0 0 0 0 0 0 0 0 0 0 0 0 0 0 0 0 0 0 0 0 0 0 0 0 0 0 0 0 0
0 0 0 0 0 0 0 0 0 0 0 0 0 0 0 0 0 0 0 0 0 0 0 0 0 0 0 0 0 0 0 0 0 0 0 0 0 0 0 0 0 0 0
0 0 0 0 0 0 0 0 0 0 0 0 0 0 0 0 0 0 0 0 0 0 0 0 0 0 0 0 0 0 0 0 0 0 0 0 0 0 0 0 0 0 0
0 0 0 0 0 0 0 0 0 0 0 0 0 0 0 0 0 0 0 0 0 0 0 0 0 0 0 0 0 0 0 0 0 0 0 0 0 0 0 0 0 0 0
0 0 0 0 0 0 0 0 0 0 0 0 0 0 0 0 0 0 0 0 0 0 0 0 0 0 0 0 0 0 0 0 0 0 0 0 0 0 0 0 0 0 0
0 0 0 0 0 0 0 0 0 0 0 0 0 0 0 0 0 0 0 0 0 0 0 0 0 0 0 0 0 0 0 0 0 0 0 0 0 0 0 0 0 0 0
0 0 0 0 0 0 0 0 0 0 0 0 0 0 0 0 0 0 0 0 0 0 0 0 0 0 0 0 0 0 0 0 0 0 0 0 0 0 0 0 0 0 0
0 0 0 0 0 0 0 0 0 0 0 0 0 0 0 0 0 0 0 0 0 0 0 0 0 0 0 0 0 0 0 0 0 0 0 0 0 0 0 0 0 0 0
0 0 0 0 0 0 0 0 0 0 0 0 0 0 0 0 0 0 0 0 0 0 0 0 0 0 0 0 0 0 0 0 0 0 0 0 0 0 0 0 0 0 0
0 0 0 0 0 0 0 0 0 0 0 0 0 0 0 0 0 0 0 0 0 0 0 0 0 0 0 0 0 0 0 0 0 0 0 0 0 0 0 0 0 0 0
0 0 0 0 0 0 0 0 0 0 0 0 0 0 0 0 0 0 0 0 0 0 0 0 0 0 0 0 0 0 0 0 0 0 0 0 0 0 0 0 0 0 0
0 0 0 0 0 0 0 0 0 0 0 0 0 0 0 0 0 0 0 0 0 0 0 0 0 0 0 0 0 0 0 0 0 0 0 0 0 0 0 0 0 0 0
0 0 0 0 0 0 0 0 0 0 0 0 0 0 0 0 0 0 0 0 0 0 0 0 0 0 0 0 0 0 0 0 0 0 0 0 0 0 0 0 0 0 0
0 0 0 0 0 0 0 0 0 0 0 0 0 0 0 0 0 0 0 0 0 0 0 0 0 0 0 0 0 0 0 0 0 0 0 0 0 0 0 0 0 0 0
0 0 0 0 0 0 0 0 0 0 0 0 0 0 0 0 0 0 0 0 0 0 0 0 0 0 0 0 0 0 0 0 0 0 0 0 0 0 0 0 0 0 0
0 0 0 0 0 0 0 0 0 0 0 0 0 0 0 0 0 0 0 0 0 0 0 0 0 0 0 0 0 0 0 0 0 0 0 0 0 0 0 0 0 0 0
0 0 0 0 0 0 0 0 0 0 0 0 0 0 0 0 0 0 0 0 0 0 0 0 0 0 0 0 0 0 0 0 0 0 0 0 0 0 0 0 0 0 0
Wind_Speed
2 2 8 10 11 12 13 13 14 15 15 15 16 16 16 16 16 16 16 16 15 15 15 14 13 14 14 15 15 16 16 15 15 15 15 15 14 14 14 14 14 10 15
5 5 9 10 11 12 13 14 14 14 15 15 15 15 15 15 15 15 15 14 14 14 14 13 13 13 13 14 15 15 15 15 15 15 14 13 14 13 14 13 13 9 15
7 5 7 10 11 12 14 14 14 14 15 14 14 14 14 14 14 14 14 14 14 14 13 13 13 13 13 14 14 14 14 14 14 14 12 6 8 12 13 13 13 14 14
8 5 7 11 12 13 13 13 13 13 14 13 13 13 13 13 13 13 13 13 13 12 12 12 11 12 12 13 13 13 13 13 13 12 6 5 6 11 12 13 14 14 14
7 5 8 13 13 13 13 13 13 13 13 13 13 13 13 13 13 13 12 12 12 11 11 11 10 11 11 12 12 11 11 11 11 8 5 5 4 10 12 13 14 14 14
6 5 8 13 13 12 12 12 12 12 12 12 12 12 12 12 12 12 11 11 11 10 10 10 9 10 10 10 10 10 10 10 8 5 4 5 4 10 12 13 13 13 13
7 5 7 13 13 12 12 12 12 12 12 12 12 11 11 11 11 11 11 10 10 9 9 9 8 8 9 9 9 9 8 8 6 5 4 5 6 11 12 12 12 13 13
8 6 5 11 12 11 11 11 11 12 12 11 11 11 11 11 10 10 10 10 9 9 8 7 7 7 7 7 7 7 7 6 6 6 5 5 8 11 12 11 12 12 12
8 6 4 4 7 10 11 11 11 11 11 11 11 10 10 10 10 9 9 9 8 8 7 6 6 6 5 6 7 7 7 6 5 4 7 5 9 11 12 12 12 12 12
7 6 4 3 3 3 4 9 10 10 10 10 10 10 10 9 8 8 7 8 8 7 6 6 5 5 4 6 7 7 6 6 4 4 4 5 11 13 13 12 12 12 12
6 4 4 4 3 3 3 6 7 9 9 9 7 9 7 3 3 4 6 7 7 7 6 5 4 4 3 4 5 5 4 2 3 3 3 8 13 13 13 13 12 12 12
6 5 4 4 4 3 4 3 2 4 4 4 3 4 3 3 2 3 4 7 7 6 5 4 4 3 1 1 2 3 2 2 2 3 4 11 12 13 13 12 13 13 12
6 6 4 4 3 3 2 3 2 2 2 3 3 4 3 2 2 1 1 2 3 4 2 2 2 1 1 1 1 1 2 2 2 3 5 11 12 12 12 12 13 13 12
6 5 5 4 3 2 2 3 3 3 2 2 3 4 3 2 2 2 1 2 2 1 1 1 1 1 1 1 2 2 2 2 2 2 4 12 12 12 12 13 13 13 13
6 5 4 4 3 3 2 2 3 3 3 3 3 3 4 3 2 2 2 2 2 2 2 2 2 1 1 1 2 3 3 2 3 3 3 11 12 12 12 13 13 12 12
6 5 4 4 4 4 3 2 3 3 3 3 3 3 3 3 2 2 2 2 2 2 2 2 2 2 2 2 2 3 3 3 3 3 3 5 10 11 12 12 12 12 12
6 5 5 5 4 3 3 3 3 3 3 2 2 3 3 3 3 2 2 1 1 2 2 2 2 1 1 1 2 2 2 2 3 3 3 2 4 8 11 11 11 12 12
7 5 5 5 4 3 2 2 2 3 3 2 2 2 3 3 3 3 2 1 1 2 2 2 2 1 1 1 1 1 2 2 3 3 3 3 2 3 6 10 10 11 11
7 6 5 4 4 3 3 2 2 3 3 2 2 2 2 3 3 3 2 1 1 2 1 2 2 2 2 1 1 1 1 2 2 3 3 4 3 3 2 5 7 9 11
7 7 6 5 4 3 2 2 2 2 1 2 2 2 3 2 3 3 2 2 2 1 1 1 1 1 1 2 1 0 1 1 2 2 3 3 3 4 3 3 2 4 8
7 6 5 5 4 3 2 2 2 1 1 1 2 3 3 3 3 3 2 2 2 2 1 2 1 1 1 1 1 1 1 1 1 2 2 1 2 3 3 3 3 2 2
8 7 6 5 5 4 3 2 2 2 1 1 1 2 3 3 3 3 3 2 2 2 2 2 2 1 1 1 2 1 1 2 2 1 1 2 2 2 3 4 3 4 3
9 8 7 6 5 5 4 2 2 2 1 1 0 1 1 3 3 3 3 3 2 2 2 2 2 3 1 1 1 3 2 2 1 2 2 1 2 2 2 2 3 4 4
9 8 6 5 5 4 4 3 3 2 2 2 2 1 1 2 2 3 3 3 2 2 2 2 2 2 2 1 0 1 2 3 2 1 2 1 1 1 1 2 2 3 3
10 8 7 6 5 4 4 3 3 2 2 1 1 1 1 1 2 2 3 3 2 2 2 2 1 2 2 2 1 1 0 0 1 2 1 1 1 1 1 2 2 2 2
9 8 8 7 6 5 5 4 4 4 3 2 2 1 1 1 1 2 3 3 2 2 2 2 2 2 2 2 2 2 2 1 2 2 2 1 1 1 1 1 1 1 2
Wind_Direction
118 123 109 108 108 108 108 107 103 102 101 101 100 101 102 103 104 106 108 110 111 112 113 114 117 123 126 126 125 125 126 126 126 128 127 125 125 125 122 120 119 116 118
145 131 114 112 110 110 111 110 107 106 106 105 105 104 105 106 106 108 109 113 114 115 116 117 120 124 129 128 126 127 127 127 127 127 127 127 127 126 124 122 123 122 121
134 131 121 116 112 111 111 110 111 110 109 109 108 108 109 111 112 113 115 116 117 117 118 119 122 125 129 130 129 129 129 129 128 125 122 118 125 127 128 129 128 126 125
137 136 128 122 118 115 113 111 111 112 111 112 112 112 113 115 116 117 117 117 118 119 120 120 123 126 128 131 131 132 133 133 133 131 125 125 127 131 132 132 133 130 127
131 135 136 129 125 121 119 116 117 117 117 118 118 118 119 118 118 119 118 118 120 120 121 122 125 129 134 136 136 136 137 138 136 128 126 122 122 136 136 136 136 135 133
130 134 139 134 130 127 127 125 123 124 124 123 123 123 122 121 121 121 120 119 119 119 122 125 128 133 138 141 142 143 142 146 133 121 127 130 132 141 140 140 141 139 138
130 128 134 133 132 132 132 131 129 130 128 127 126 126 126 126 125 125 123 123 122 122 124 124 127 132 142 147 149 149 146 147 139 137 144 145 149 148 147 146 145 143 143
127 126 135 137 136 137 136 134 134 134 133 132 129 128 128 129 131 132 131 131 130 128 124 127 133 137 143 152 156 154 148 151 147 152 154 156 157 157 156 153 151 150 150
129 129 133 138 139 141 142 141 140 139 138 135 133 133 133 134 138 138 138 136 133 131 129 132 137 142 152 162 164 160 157 151 139 154 162 161 163 163 163 164 162 161 159
131 136 136 129 127 135 142 148 148 147 142 139 139 139 142 142 142 143 144 144 141 141 142 142 144 148 156 167 165 160 156 143 139 154 155 169 171 170 170 171 172 171 169
126 135 144 143 145 151 159 153 153 151 146 146 145 145 142 137 138 145 153 156 153 155 156 156 156 156 153 163 161 155 149 128 140 155 160 178 176 174 176 177 180 179 177
146 153 157 156 160 168 160 148 162 161 155 153 152 151 149 149 158 158 166 171 168 169 171 172 172 169 149 107 136 142 127 135 144 163 178 179 177 178 180 182 185 185 184
158 158 164 163 163 167 158 167 181 166 161 163 161 158 151 148 158 149 155 179 182 186 192 196 192 178 130 124 127 139 154 150 164 176 181 179 182 183 182 185 185 186 188
142 148 159 155 150 156 151 171 178 163 164 165 169 161 152 155 163 166 174 184 182 187 189 203 188 187 162 172 178 174 180 170 162 171 181 183 183 186 187 189 190 192 194
139 140 140 137 132 131 129 164 159 159 159 154 155 159 155 156 166 164 172 176 182 178 183 197 189 192 185 195 180 171 177 179 176 171 180 187 187 192 194 195 196 199 201
145 144 141 133 129 120 111 111 130 144 148 144 154 163 156 153 150 150 160 166 177 181 188 194 192 186 189 181 180 178 178 185 184 182 178 192 195 198 201 202 202 204 207
152 148 148 146 133 120 115 116 117 132 136 143 156 159 154 152 153 149 154 169 187 177 165 163 177 167 165 155 167 184 180 184 183 187 179 183 202 210 210 210 209 209 209
151 150 156 151 138 135 136 127 118 123 127 138 146 147 154 153 147 142 147 178 176 145 137 144 149 136 138 151 177 195 190 180 190 185 183 188 204 219 219 218 215 213 212
156 155 153 145 146 150 146 128 123 116 129 144 146 145 155 153 146 138 145 165 140 125 145 171 151 158 171 185 189 186 187 189 207 204 193 197 199 209 211 221 222 218 217
157 154 152 151 155 146 127 102 91 94 118 143 156 161 154 151 144 138 138 138 124 116 127 143 146 160 173 182 182 166 220 213 209 209 211 209 202 201 197 206 218 230 224
156 155 157 155 162 144 129 129 125 137 159 163 179 170 161 158 150 145 146 144 133 133 157 149 137 141 167 134 94 19 338 305 235 225 220 194 197 205 195 199 200 208 225
168 165 163 165 165 165 163 161 160 158 181 179 184 169 169 163 164 160 154 157 152 141 138 131 131 133 179 157 143 123 3 335 316 261 235 200 196 192 197 200 196 202 207
173 173 173 174 169 170 160 129 104 73 56 57 112 184 192 169 170 162 164 159 152 146 158 166 152 148 173 231 165 157 161 221 277 310 258 228 205 192 210 200 199 205 207
177 169 165 171 169 167 151 139 148 154 177 204 192 191 205 180 172 164 160 157 156 155 170 190 172 161 153 200 266 202 182 168 166 274 318 291 221 213 223 219 204 203 205
171 167 169 166 166 162 155 160 164 174 192 190 161 160 183 194 182 167 158 156 161 166 179 182 167 160 163 177 191 204 196 143 158 160 246 299 325 268 222 212 200 188 199
171 168 168 167 169 164 163 171 179 183 174 157 154 161 185 195 187 169 168 170 176 179 183 184 187 180 184 180 184 180 168 172 193 172 192 221 243 277 269 246 198 192 204